Weather History for Zapata, TX

Change the Weather History Date:

Friday, January 24, 2014

  Actual Average (KLRD) Record (KLRD)
Temperature  
Mean Temperature 36 °F 57 °F  
Max Temperature 39 °F 68 °F 93 °F (1943)
Min Temperature 32 °F 47 °F 16 °F (1930)
Degree Days  
Heating Degree Days 30 9  
Month to date heating degree days 232  
Since 1 July heating degree days 622  
Cooling Degree Days 0 1  
Month to date cooling degree days 24  
Year to date cooling degree days 24  
Moisture  
Dew Point 31 °F    
Average Humidity 86    
Maximum Humidity 100    
Minimum Humidity 68    
Precipitation  
Precipitation 0.00 in 0.03 in 1.20 in (2007)
Month to date precipitation 0.70  
Year to date precipitation 0.70  
Sea Level Pressure  
Sea Level Pressure 30.58 in    
Wind  
Wind Speed 10 mph (NNW)    
Max Wind Speed 18 mph    
Max Gust Speed 26 mph    
Visibility 9 miles    
Events Snow    
T = Trace of Precipitation, MM = Missing Value Source: NWS Daily Summary

Daily Weather History Graph

Daily Weather History Graph

Search for Another Location

Airport:

Trip Planner

Search our weather history database for the weather conditions in past years. The results will help you decide how hot, cold, wet, or windy it might be!

Date:

Astronomy

Jan. 24, 2014 Rise Set
Actual Time 7:25 AM CST 6:12 PM CST
Civil Twilight 7:01 AM CST 6:37 PM CST
Nautical Twilight 6:32 AM CST 7:05 PM CST
Astronomical Twilight 6:05 AM CST 7:33 PM CST
Moon 1:02 AM CST (1/24) 12:27 PM CST (1/24)
Length of Visible Light 11h 36m
Length of Day
10h 47m
Last Quarter, 44% of the Moon is Illuminated
Jan 24
Last Quarter
Jan 30
New
Feb 6
First Quarter
Feb 14
Full
Feb 22
Last Quarter

Hourly Weather History & Observations

Time (CST) Temp. Windchill Dew Point Humidity Pressure Visibility Wind Dir Wind Speed Gust Speed Precip Events Conditions
12:15 AM 35.8 °F 26.1 °F 35.1 °F 97% 30.61 in 7.0 mi North 16.1 mph 23.0 mph N/A   Light Drizzle
12:35 AM 35.2 °F 25.4 °F 34.0 °F 95% 30.61 in 10.0 mi North 16.1 mph 26.5 mph N/A   Overcast
12:55 AM 35.2 °F 27.1 °F 34.7 °F 98% 30.62 in 5.0 mi North 11.5 mph 19.6 mph N/A   Overcast
1:15 AM 34.7 °F 24.0 °F 34.2 °F 98% 30.63 in 4.0 mi NNW 18.4 mph 23.0 mph N/A   Drizzle
2:15 AM 34.2 °F 24.8 °F 33.8 °F 99% 30.65 in 7.0 mi North 13.8 mph 19.6 mph N/A   Overcast
2:35 AM 34.0 °F 26.0 °F 33.3 °F 97% 30.64 in 10.0 mi North 10.4 mph - N/A   Overcast
2:55 AM 34.3 °F 25.9 °F 33.8 °F 98% 30.65 in 10.0 mi North 11.5 mph - N/A   Overcast
3:15 AM 34.5 °F 25.7 °F 33.6 °F 97% 30.65 in 10.0 mi North 12.7 mph 19.6 mph N/A   Overcast
3:35 AM 34.3 °F 25.5 °F 33.4 °F 97% 30.65 in 10.0 mi NNW 12.7 mph 20.7 mph N/A   Overcast
3:55 AM 34.2 °F 25.2 °F 32.9 °F 95% 30.66 in 10.0 mi North 12.7 mph 18.4 mph N/A   Overcast
4:15 AM 34.0 °F 25.5 °F 33.3 °F 97% 30.66 in 10.0 mi NNW 11.5 mph - N/A   Overcast
4:55 AM 33.4 °F 25.4 °F 33.1 °F 99% 30.66 in 10.0 mi NNW 10.4 mph - N/A   Overcast
5:15 AM 33.1 °F 23.9 °F 32.7 °F 99% 30.67 in 4.0 mi North 12.7 mph 17.3 mph N/A Snow Light Snow
5:35 AM 33.1 °F 23.9 °F 32.7 °F 99% 30.67 in 4.0 mi NNW 12.7 mph 17.3 mph N/A Snow Light Snow
5:55 AM 32.9 °F 23.2 °F 32.4 °F 98% 30.67 in 10.0 mi NNW 13.8 mph 20.7 mph N/A   Overcast
6:15 AM 32.9 °F 24.7 °F 32.0 °F 96% 30.67 in 10.0 mi North 10.4 mph 17.3 mph N/A   Overcast
6:35 AM 33.1 °F 24.4 °F 32.4 °F 97% 30.68 in 7.0 mi North 11.5 mph - N/A   Overcast
6:55 AM 32.9 °F 23.7 °F 32.0 °F 96% 30.69 in 10.0 mi North 12.7 mph 19.6 mph N/A   Overcast
7:15 AM 32.9 °F 23.2 °F 31.6 °F 95% 30.70 in 10.0 mi North 13.8 mph 17.3 mph N/A   Overcast
7:35 AM 32.9 °F 25.3 °F 32.0 °F 96% 30.70 in 10.0 mi NNW 9.2 mph 16.1 mph N/A   Overcast
7:55 AM 32.9 °F 25.3 °F 31.5 °F 94% 30.71 in 10.0 mi North 9.2 mph - N/A   Overcast
8:35 AM 32.2 °F 22.7 °F 31.6 °F 98% 30.71 in 7.0 mi NNW 12.7 mph 18.4 mph N/A   Overcast
9:15 AM 32.0 °F 23.6 °F 31.1 °F 96% 30.71 in 10.0 mi NNW 10.4 mph 17.3 mph N/A   Overcast
9:55 AM 32.2 °F 24.4 °F 31.8 °F 99% 30.71 in 10.0 mi NNW 9.2 mph - N/A   Overcast
10:35 AM 32.0 °F 23.6 °F 30.4 °F 94% 30.72 in 10.0 mi NNW 10.4 mph 18.4 mph N/A   Overcast
10:55 AM 32.2 °F 23.8 °F 30.0 °F 92% 30.71 in 10.0 mi NNW 10.4 mph - N/A   Overcast
11:35 AM 33.4 °F 25.9 °F 29.3 °F 85% 30.70 in 10.0 mi NNW 9.2 mph - N/A   Overcast
12:35 PM 34.9 °F 28.3 °F 29.1 °F 79% 30.65 in 10.0 mi NNW 8.1 mph - N/A   Overcast
12:55 PM 34.9 °F 27.7 °F 29.1 °F 79% 30.63 in 10.0 mi NNW 9.2 mph - N/A   Overcast
1:15 PM 35.1 °F 29.3 °F 29.3 °F 80% 30.61 in 10.0 mi NNW 6.9 mph - N/A   Overcast
1:35 PM 36.1 °F 29.3 °F 29.7 °F 77% 30.58 in 10.0 mi NNW 9.2 mph - N/A   Overcast
1:55 PM 36.3 °F 30.8 °F 29.1 °F 75% 30.57 in 10.0 mi NNW 6.9 mph - N/A   Overcast
2:15 PM 36.5 °F 29.7 °F 28.9 °F 74% 30.55 in 10.0 mi NNW 9.2 mph - N/A   Overcast
2:35 PM 37.4 °F 30.8 °F 29.1 °F 72% 30.54 in 10.0 mi North 9.2 mph - N/A   Overcast
2:55 PM 37.8 °F 32.5 °F 28.9 °F 71% 30.53 in 10.0 mi NW 6.9 mph - N/A   Overcast
3:15 PM 37.8 °F 30.7 °F 28.9 °F 71% 30.53 in 10.0 mi NNW 10.4 mph - N/A   Overcast
3:35 PM 38.1 °F 35.7 °F 28.9 °F 70% 30.51 in 10.0 mi North 3.5 mph - N/A   Overcast
3:55 PM 38.5 °F 32.7 °F 29.1 °F 69% 30.51 in 10.0 mi NNW 8.1 mph - N/A   Overcast
4:15 PM 38.3 °F 33.2 °F 28.9 °F 69% 30.50 in 10.0 mi NW 6.9 mph - N/A   Overcast
4:35 PM 38.7 °F 32.9 °F 29.1 °F 69% 30.50 in 10.0 mi NNW 8.1 mph - N/A   Overcast
4:55 PM 38.8 °F 33.8 °F 29.3 °F 69% 30.50 in 10.0 mi NNW 6.9 mph - N/A   Overcast
5:15 PM 39.0 °F 34.8 °F 29.3 °F 68% 30.49 in 10.0 mi North 5.8 mph - N/A   Overcast
5:35 PM 38.8 °F 34.6 °F 29.1 °F 68% 30.49 in 10.0 mi NNW 5.8 mph - N/A   Overcast
5:55 PM 38.7 °F 36.3 °F 29.1 °F 69% 30.49 in 10.0 mi NNW 3.5 mph - N/A   Overcast
6:15 PM 38.5 °F 35.0 °F 29.3 °F 70% 30.49 in 10.0 mi North 4.6 mph - N/A   Overcast
6:35 PM 38.5 °F 35.0 °F 29.5 °F 70% 30.49 in 10.0 mi North 4.6 mph - N/A   Overcast
6:55 PM 38.5 °F 36.1 °F 29.7 °F 71% 30.49 in 10.0 mi North 3.5 mph - N/A   Overcast
7:15 PM 38.1 °F - 29.5 °F 71% 30.48 in 10.0 mi Calm Calm - N/A   Overcast
7:35 PM 37.9 °F - 30.0 °F 73% 30.49 in 10.0 mi Calm Calm - N/A   Overcast
7:55 PM 37.9 °F - 30.4 °F 74% 30.48 in 10.0 mi Calm Calm - N/A   Overcast
8:15 PM 37.6 °F - 31.1 °F 77% 30.48 in 10.0 mi Calm Calm - N/A   Overcast
8:35 PM 37.0 °F - 31.6 °F 81% 30.48 in 10.0 mi Calm Calm - N/A   Mostly Cloudy
8:55 PM 35.8 °F - 31.8 °F 86% 30.47 in 10.0 mi Calm Calm - N/A   Scattered Clouds
9:15 PM 34.7 °F - 31.6 °F 89% 30.47 in 10.0 mi Calm Calm - N/A   Clear
9:35 PM 34.7 °F - 32.0 °F 90% 30.47 in 10.0 mi Calm Calm - N/A   Clear
9:55 PM 34.2 °F - 32.4 °F 93% 30.46 in 10.0 mi Calm Calm - N/A   Clear
10:15 PM 33.8 °F - 32.9 °F 96% 30.46 in 10.0 mi Calm Calm - N/A   Clear
10:35 PM 33.8 °F - 32.4 °F 94% 30.45 in 10.0 mi Calm Calm - N/A   Clear
10:55 PM 32.9 °F - 32.2 °F 97% 30.44 in 10.0 mi Calm Calm - N/A   Clear
11:15 PM 32.0 °F - 31.8 °F 99% 30.44 in 10.0 mi Calm Calm - N/A   Clear
11:35 PM 32.0 °F - 32.0 °F 100% 30.42 in 10.0 mi Calm Calm - N/A   Clear
11:55 PM 32.0 °F - 31.8 °F 99% 30.42 in 10.0 mi Calm Calm - N/A   Clear